Regional Weather Roundup
Issued by NWS

Home | Current Version | Previous Version | Graphics & Text | Print | Product List | Glossary On
Versions: 1 2 3 4 5 6 7 8 9 10 11 12 13 14 15 16 17 18 19 20 21 22 23 24 25 26 27 28 29 30 31 32 33 34 35 36 37 38 39 40 41 42 43 44 45 46 47 48 49 50
000
ASUS45 KTFX 222204
RWRMT
MONTANA HOURLY WEATHER ROUNDUP
NATIONAL WEATHER SERVICE GREAT FALLS MT
304 PM MST SAT NOV 22 2014

NOTE: "FAIR" INDICATES FEW OR NO CLOUDS BELOW 12000 FEET WITH NO
SIGNIFICANT WEATHER AND/OR OBSTRUCTIONS TO VISIBILITY.

* THESE STATIONS ARE NOT UNDER NWS QUALITY CONTROL. THEY DO NOT
   REPORT WEATHER SUCH AS PRECIPITATION OR FOG.

MTZ001>007-043-222300-
WEST OF THE DIVIDE
CITY           SKY/WX    TMP DP  RH WIND       PRES   REMARKS
KALISPELL      CLOUDY    43  25  49 W10       29.55R
MISSOULA       CLOUDY    39  27  62 W16G22    29.66R WCI  30
BUTTE          PTCLDY    36  16  44 W23G31    29.56R WCI  24
MULLAN PASS    CLOUDY    25  23  92 VRB6G23   29.60R WCI  18
* ESSEX        N/A       35  25  67 S5G13      N/A   WCI  31
* LINCOLN      N/A       38  21  50 SW10G23    N/A   WCI  31
* LOOKOUT PASS N/A       32  25  75 E4         N/A
* POLSON       N/A       40  23  51 W4G10      N/A
* RONAN APT    PTCLDY    45  27  49 SW14G22    N/A
* SEELEY LAKE  N/A       37  20  50 NW7G21     N/A   WCI  32
* THOMP F APT  PTCLDY    29  25  85 N8G31      N/A   WCI  21
* YAAK HILL    N/A       45  19  35 S3G9       N/A
$$

MTZ008-052>055-222300-
SOUTHWEST MONTANA
CITY           SKY/WX    TMP DP  RH WIND       PRES   REMARKS
BOZEMAN        PTSUNNY   41  19  41 W23G31    29.54R
DILLON         PTCLDY    37  18  46 W22G32    29.59S WCI  26
* W YELLOWSTON CLOUDY    32  28  85 W3G15      N/A
* ENNIS APT    PTSUNNY   39  19  45 W9         N/A   WCI  33
* THREE FORKS  PTCLDY    45  16  31 W20G30     N/A
* BOULDER HILL N/A       36   8  31 S20G36     N/A   WCI  25
* MONIDA PASS  N/A       28  15  58 W17G28     N/A   WCI  16
* RAYNOLDS PAS N/A       29 -19  11 VRB4G11    N/A
* WHITEHALL    N/A       45  18  34 W14G29     N/A
* WISE RIVER   N/A       34  19  54 W20G29     N/A   WCI  23
$$

MTZ009>010-012-014-046-048-049-054-222300-
EAST SLOPES AND CENTRAL MONTANA
CITY           SKY/WX    TMP DP  RH WIND       PRES   REMARKS
CUT BANK       PTSUNNY   39  19  45 W37G44    29.32R WCI  26
GREAT FALLS    PTCLDY    43  18  37 W33G38    29.37R
HELENA         PTCLDY    45  16  31 W29G39    29.48R
* DEARBORN     N/A       43  17  35 S21G29     N/A
* EAST GLACIER N/A       32  20  61 NW32G53    N/A   WCI  17
* MONARCH      N/A       36  15  42 W21G34     N/A   WCI  25
* PENDROY      N/A       38  19  46 W42G56     N/A   WCI  24
* ROGERS PASS  N/A       31  18  59 E7G18      N/A   WCI  24
* SAINT MARY   N/A       34  22  61 SW12G31    N/A   WCI  25
* SWEET GRASS  N/A       41  21  45 W27G37     N/A
$$

MTZ011-013-016-021-035-040-045-047-050-051-222300-
NORTH CENTRAL MONTANA
CITY           SKY/WX    TMP DP  RH WIND       PRES   REMARKS
HAVRE          CLOUDY    45  25  45 W29G38    29.27R
LEWISTOWN      PTSUNNY   45  16  31 W20G36    29.34R
* N BAR RANCH  SUNNY     46  12  25 W26G32    29.30F
* CHESTER      N/A       44  20  38 W24G43     N/A
* DENTON       N/A       44  19  37 W26G35     N/A
* GEYSER       N/A       41  15  35 W32G40     N/A
* JUDITH GAP   N/A       42  15  33 W22G37     N/A
* LOMA         N/A       48  20  33 W35G45     N/A
$$

MTZ017>020-022>027-061-062-222300-
NORTHEAST MONTANA
CITY           SKY/WX    TMP DP  RH WIND       PRES   REMARKS
GLASGOW        SUNNY     46  34  63 W12       29.24R
GLENDIVE       PTSUNNY   43  34  71 SW17      29.31R
JORDAN         PTSUNNY   45  34  65 NW6       29.27R
SIDNEY         CLOUDY    39  34  82 SE5       29.28S WCI  35
WOLF POINT     PTCLDY    48  36  63 W9        29.25R
* BEAVER HILL  N/A       42  36  79 S16        N/A
* CIRCLE       N/A       44  37  76 N/A        N/A
* LINDSAY DVD  N/A       45  34  65 SW17G23    N/A
* NAVAJO       N/A       47  30  52 W22G29     N/A
* SACO         N/A       48  31  52 SW17       N/A
$$

MTZ028>042-056>058-222300-
SOUTHCENTRAL AND SOUTHEAST MONTANA
CITY           SKY/WX    TMP DP  RH WIND       PRES   REMARKS
BAKER          PTSUNNY   41  36  82 S9        29.33F
BILLINGS       LGT RAIN  45  34  65 W17G35    29.40S
LIVINGSTON     CLOUDY    41 N/A N/A W31G38    29.47R
MILES CITY     CLOUDY    50  37  61 SW15      29.31F
* LAUREL APT   PTSUNNY   45  32  60 W25G38     N/A
* ALZADA       N/A       46  29  52 NW3        N/A
* HYSHAM       N/A       48  31  52 W8G17      N/A
* LAME DEER    N/A       48  29  48 NW5G10     N/A
* REED POINT   N/A       41  35  79 W17G27     N/A
* ROSCOE HILL  N/A       33  27  79 S6G27      N/A   WCI  27
$$

REGIONAL REPORTS...DAKOTAS
CITY           SKY/WX    TMP DP  RH WIND       PRES   REMARKS
WILLISTON      CLOUDY    41  30  65 SW12      29.25R
DICKINSON      LGT RAIN  39  37  93 W15       29.33R WCI  31
BEACH          SUNNY     41  39  93 S10       29.31R
CROSBY         CLOUDY    41  32  70 S14G21    29.21R
BISMARCK       CLOUDY    43  30  60 SW7       29.34F
GRAND FORKS    CLOUDY    39  30  70 SE10      29.43F WCI  32
FARGO          CLOUDY    43  30  60 SE12      29.43F
BUFFALO SD     PTSUNNY   48  34  59 W9        29.33R
RAPID CITY     CLOUDY    52  28  40 SW7       29.39S
$$

REGIONAL REPORTS...WYOMING/IDAHO/WASHINGTON
CITY           SKY/WX    TMP DP  RH WIND       PRES   REMARKS
GILLETTE       CLOUDY    43  30  60 SW26G39   29.38F
SHERIDAN       PTSUNNY   52  28  40 W17G26    29.37R
CODY           PTSUNNY   43  32  65 SW23G30   29.41F
YELLOWSTONE LA PTCLDY    30  27  89 W12G18    29.56R WCI  20
SALMON         PTCLDY    45  16  31 N5G18     29.66R
MULLAN PASS    CLOUDY    25  23  92 VRB6G23   29.60S WCI  18
SAND POINT     CLOUDY    41  32  70 SW7       29.68R
SPOKANE        CLOUDY    37  32  82 SW15      29.71R WCI  28
$$

REGIONAL REPORTS...ALBERTA
CITY           SKY/WX    TMP DP  RH WIND       PRES   REMARKS
EDMONTON       LGT SNOW  23  21  92 N12G17    29.33R VSB 1 3/4 WCI  11

$$



USA.gov is the U.S. government's official web portal to all federal, state and local government web resources and services.